sat.trackr.live / text

‹ back to catalog

STARLINK-34387

NORAD 64315 · 2025-123AA

PAYLOAD ACTIVE UNKNOWN

§ Identity

Operator
Country
US
Launch date
2025-06-08
Launch site
AFWTR
Launch vehicle
Mass (kg)
RCS (m²)

Purposes: comms

External: N2YO · Heavens-Above · Gunter

§ Orbital elements

Epoch: 2026-09-20T17:21:02.809152Z

Period
94.14 min
Inclination
70.0006°
Eccentricity
0.0004132
Mean motion
15.29586915 rev/d
Perigee alt
474.2 km
Apogee alt
479.9 km
Semi-major
6,855.2 km
B*
2.7950e-4
RAAN
60.2770°
Arg perigee
271.4020°
Mean anomaly
88.6682°
Rev number
7,089

§ Raw data

STARLINK-343871 64315U 25123AA  26263.72294918  .00007918  00000+0  27950-3 0  99932 64315  70.0006  60.2770 0004132 271.4020  88.6682 15.29586915 70895

JSON: /api/v1/satellites/64315 · /tle

For live sub-satellite position, see the globe view (requires WebGL).

§ Visibility from observer

Set your observer location to see the next 7 days of passes ≥ 10°. The values pass through the URL so the page stays shareable.

No JS? Fill the form by hand. The geolocation button needs JavaScript.